EW1587 Weather Reports


time (UTC)temp
C
wind
direction
speed
KPH
gust
KPH
rain 1hr
cm
rain 24hr
cm
rain mn
cm
humidity
%
barometer
mb
20260906173551 24 186 1.6 16.1 0.00 0.00 0.00 83 1016.9
20260906173048 24 245 1.6 11.3 0.00 0.00 0.00 83 1017.0
20260906172549 24 233 3.2 12.9 0.00 0.00 0.00 81 1017.0
20260906172048 25 244 3.2 12.9 0.00 0.00 0.00 81 1016.9
20260906171548 25 319 4.8 12.9 0.00 0.00 0.00 80 1016.9
20260906171048 25 242 4.8 12.9 0.00 0.00 0.00 79 1016.7
20260906170546 25 259 6.4 14.5 0.00 0.00 0.00 79 1016.9
20260906170051 26 218 4.8 14.5 0.00 0.00 0.00 78 1017.1
20260906165546 26 256 6.4 12.9 0.00 0.00 0.00 79 1017.1
20260906165045 26 245 6.4 12.9 0.00 0.00 0.00 79 1017.1
20260906164549 26 240 3.2 9.7 0.00 0.00 0.00 80 1017.0
20260906164045 26 194 4.8 11.3 0.00 0.00 0.00 80 1017.0
20260906163545 26 240 3.2 9.7 0.00 0.00 0.00 79 1017.3
20260906163045 26 248 1.6 9.7 0.00 0.00 0.00 79 1017.1
20260906162545 26 205 1.6 9.7 0.00 0.00 0.00 80 1017.0
20260906162043 26 172 4.8 9.7 0.00 0.00 0.00 81 1017.1
20260906161546 25 205 3.2 12.9 0.00 0.00 0.00 82 1017.2
20260906161038 25 253 1.6 12.9 0.00 0.00 0.00 83 1017.2
20260906160538 25 180 3.2 12.9 0.00 0.00 0.00 84 1017.2
20260906160038 25 201 3.2 11.3 0.00 0.00 0.00 83 1017.2
20260906155537 25 259 3.2 11.3 0.00 0.00 0.00 84 1017.3
20260906155035 24 218 1.6 19.3 0.00 0.00 0.00 85 1017.3
20260906154543 24 226 1.6 19.3 0.00 0.00 0.00 84 1017.4
20260906154035 24 89 6.4 14.5 0.00 0.00 0.00 83 1017.6
20260906153534 24 346 3.2 11.3 0.00 0.00 0.00 84 1017.7
20260906153035 24 165 1.6 17.7 0.00 0.00 0.00 86 1017.6
20260906152531 23 190 4.8 17.7 0.00 0.00 0.00 86 1017.6
20260906152033 23 203 3.2 17.7 0.00 0.00 0.00 86 1017.5
20260906151531 23 194 8.0 17.7 0.00 0.00 0.00 85 1017.6
20260906151030 23 181 8.0 14.5 0.00 0.00 0.00 87 1017.7
20260906150528 23 184 0.0 17.7 0.00 0.00 0.00 89 1017.6
20260906150027 23 218 8.0 17.7 0.00 0.00 0.00 88 1017.6
20260906145539 22 16 8.0 17.7 0.00 0.00 0.00 89 1017.5
20260906145023 22 226 4.8 17.7 0.00 0.00 0.00 89 1017.6
20260906144522 22 163 8.0 17.7 0.00 0.00 0.00 90 1017.6
20260906144023 22 248 6.4 17.7 0.00 0.00 0.00 90 1017.6
20260906143519 22 136 4.8 16.1 0.00 0.00 0.00 90 1017.4
20260906143017 22 162 1.6 14.5 0.00 0.00 0.00 91 1017.4
20260906142520 22 143 3.2 12.9 0.00 0.00 0.00 91 1017.4
20260906142017 22 111 4.8 11.3 0.00 0.00 0.00 92 1017.3
20260906141516 22 108 3.2 12.9 0.00 0.00 0.00 92 1017.4
20260906141016 22 156 1.6 12.9 0.00 0.00 0.00 93 1017.5
20260906140512 21 163 1.6 12.9 0.00 0.00 0.00 94 1017.5
20260906140023 21 166 3.2 14.5 0.00 0.00 0.00 94 1017.5
20260906135511 21 62 4.8 14.5 0.00 0.00 0.00 94 1017.5
20260906135014 21 172 3.2 12.9 0.00 0.00 0.00 94 1017.4
20260906134510 21 173 3.2 12.9 0.00 0.00 0.00 95 1017.4
20260906134009 21 160 1.6 11.3 0.00 0.00 0.00 96 1017.4
20260906133508 20 101 3.2 12.9 0.00 0.00 0.00 96 1017.2
20260906133021 20 198 3.2 12.9 0.00 0.00 0.00 95 1017.2
20260906132508 21 183 1.6 9.7 0.00 0.00 0.00 96 1017.2
20260906132007 21 172 0.0 9.7 0.00 0.00 0.00 96 1017.2
20260906131508 20 152 1.6 9.7 0.00 0.00 0.00 97 1017.1
20260906131007 20 35 0.0 8.0 0.00 0.00 0.00 97 1017.1
20260906130507 20 49 0.0 6.4 0.00 0.00 0.00 98 1017.1
20260906130018 20 165 0.0 6.4 0.00 0.00 0.00 98 1017.1
20260906125506 20 218 0.0 8.0 0.00 0.00 0.00 98 1017.1
20260906125009 20 64 1.6 8.0 0.00 0.00 0.00 98 1017.1
20260906124505 20 26 0.0 6.4 0.00 0.00 0.00 99 1017.2
20260906124005 20 180 0.0 6.4 0.00 0.00 0.00 99 1017.1
20260906123505 19 170 0.0 6.4 0.00 0.00 0.00 99 1017.1
20260906123004 19 79 0.0 4.8 0.00 0.00 0.00 99 1017.2
20260906122504 19 143 0.0 4.8 0.00 0.00 0.00 99 1017.3
20260906122002 19 118 0.0 3.2 0.00 0.00 0.00 99 1017.2
20260906121503 18 247 0.0 3.2 0.00 0.00 0.00 99 1017.2
20260906121002 18 132 0.0 3.2 0.00 0.00 0.00 99 1017.2
20260906120503 18 188 0.0 3.2 0.00 0.00 0.00 99 1017.2
20260906120001 18 140 0.0 3.2 0.00 0.00 0.00 99 1017.3
20260906115502 18 94 0.0 1.6 0.00 0.00 0.00 99 1017.2
20260906115000 18 97 0.0 3.2 0.00 0.00 0.00 99 1017.2
20260906114504 18 94 0.0 3.2 0.00 0.00 0.00 99 1017.1
20260906114100 18 88 0.0 1.6 0.00 0.00 0.00 99 1017.1
20260906113600 19 96 0.0 3.2 0.00 0.00 0.00 99 1017.1
20260906113100 18 93 0.0 3.2 0.00 0.00 0.00 99 1017.1
20260906112559 18 93 0.0 1.6 0.00 0.00 0.00 99 1017.1
20260906112100 18 74 0.0 1.6 0.00 0.00 0.00 99 1017.1
20260906111616 18 50 0.0 1.6 0.00 0.00 0.00 98 1017.0
20260906111057 18 107 0.0 3.2 0.00 0.00 0.00 98 1017.0
20260906110558 18 165 0.0 3.2 0.00 0.00 0.00 98 1016.9
20260906110057 18 177 0.0 1.6 0.00 0.00 0.00 98 1016.9
20260906105556 18 23 0.0 1.6 0.00 0.00 0.00 98 1016.8
20260906105058 19 56 0.0 0.0 0.00 0.00 0.00 98 1016.8
20260906104556 19 58 0.0 1.6 0.00 0.00 0.00 98 1016.9
20260906104055 19 108 0.0 1.6 0.00 0.00 0.00 98 1016.9
20260906103554 19 85 0.0 1.6 0.00 0.00 0.00 98 1016.8
20260906103054 19 147 0.0 4.8 0.00 0.00 0.00 98 1016.7
20260906102553 19 139 0.0 4.8 0.00 0.00 0.00 98 1016.7
20260906102052 19 158 0.0 6.4 0.00 0.00 0.00 98 1016.6
20260906101552 19 222 0.0 8.0 0.00 0.00 0.00 98 1016.6
20260906101052 19 190 1.6 8.0 0.00 0.00 0.00 98 1016.5
20260906100554 19 159 0.0 8.0 0.00 0.00 0.00 98 1016.5
20260906100058 19 194 0.0 8.0 0.00 0.00 0.00 98 1016.5
20260906095550 19 205 1.6 8.0 0.00 0.00 0.00 98 1016.6
20260906095050 19 194 0.0 8.0 0.00 0.00 0.00 98 1016.5
20260906094551 19 198 0.0 4.8 0.00 0.00 0.00 98 1016.5
20260906094052 19 222 0.0 4.8 0.00 0.00 0.00 98 1016.5
20260906093550 19 73 0.0 8.0 0.00 0.00 0.00 98 1016.5
20260906093051 19 166 0.0 8.0 0.00 0.00 0.00 98 1016.3
20260906092552 19 248 0.0 4.8 0.00 0.00 0.00 97 1016.3
20260906092049 19 259 0.0 4.8 0.00 0.00 0.00 97 1016.2
20260906091549 19 210 0.0 1.6 0.00 0.00 0.00 97 1016.2
20260906091047 19 245 0.0 1.6 0.00 0.00 0.00 97 1016.2
20260906090546 20 190 0.0 1.6 0.00 0.00 0.00 97 1016.2
20260906090046 20 136 0.0 3.2 0.00 0.00 0.00 97 1016.1
20260906085551 20 48 0.0 3.2 0.00 0.00 0.00 97 1016.0
20260906085045 20 82 0.0 4.8 0.00 0.00 0.00 97 1016.0
20260906084546 20 86 0.0 4.8 0.00 0.00 0.00 97 1016.0
20260906084046 20 98 0.0 3.2 0.00 0.00 0.00 97 1016.1
20260906083545 20 81 0.0 1.6 0.00 0.00 0.00 97 1016.2
20260906083045 20 96 0.0 3.2 0.00 0.00 0.00 97 1016.2
20260906082545 20 85 0.0 3.2 0.00 0.00 0.00 97 1016.1
20260906082045 20 98 0.0 6.4 0.00 0.00 0.00 97 1016.0
20260906081545 20 100 1.6 8.0 0.00 0.00 0.00 98 1016.0
20260906081044 20 87 1.6 3.2 0.00 0.00 0.00 98 1015.9
20260906080545 20 89 0.0 3.2 0.00 0.00 0.00 96 1015.9
20260906080050 20 67 0.0 1.6 0.00 0.00 0.00 96 1015.9
20260906075547 20 68 0.0 1.6 0.00 0.00 0.00 96 1016.0
20260906075042 20 93 0.0 3.2 0.00 0.00 0.00 97 1016.0
20260906074548 20 96 0.0 3.2 0.00 0.00 0.00 97 1015.8
20260906074040 20 91 0.0 1.6 0.00 0.00 0.00 95 1015.8
20260906073541 20 93 0.0 3.2 0.00 0.00 0.00 95 1015.7
20260906073039 20 93 0.0 3.2 0.00 0.00 0.00 96 1016.0
20260906072538 20 134 0.0 1.6 0.00 0.00 0.00 96 1016.0
20260906072039 20 98 0.0 3.2 0.00 0.00 0.00 96 1016.0
20260906071536 20 113 0.0 3.2 0.00 0.00 0.00 96 1016.1
20260906071136 20 100 0.0 3.2 0.00 0.00 0.00 96 1016.2
20260906070535 20 99 0.0 3.2 0.00 0.00 0.00 95 1016.1
20260906070037 21 92 0.0 3.2 0.00 0.00 0.00 95 1016.2
20260906065535 21 100 0.0 3.2 0.00 0.00 0.00 95 1016.4
20260906065034 21 127 0.0 3.2 0.00 0.00 0.00 95 1016.5
20260906064535 21 86 0.0 3.2 0.00 0.00 0.00 95 1016.5
20260906064034 21 73 1.6 3.2 0.00 0.00 0.00 96 1016.4
20260906063537 21 85 0.0 3.2 0.00 0.00 0.00 96 1016.4
20260906063037 21 88 0.0 1.6 0.00 0.00 0.00 96 1016.5
20260906062533 20 85 0.0 3.2 0.00 0.00 0.00 96 1016.6
20260906062033 20 96 0.0 3.2 0.00 0.00 0.00 96 1016.6
20260906061534 20 138 0.0 1.6 0.00 0.00 0.00 95 1016.6
20260906061035 20 139 0.0 6.4 0.00 0.00 0.00 95 1016.5
20260906060531 20 94 0.0 6.4 0.00 0.00 0.00 95 1016.4
20260906060034 20 111 0.0 3.2 0.00 0.00 0.00 95 1016.4
20260906052552 21 223 1.6 8.0 0.00 0.00 0.00 94 1016.3
20260906052051 21 180 1.6 9.7 0.00 0.00 0.00 94 1016.3
20260906051551 21 47 0.0 3.2 0.00 0.00 0.00 94 1016.2
20260906051050 21 91 0.0 4.8 0.00 0.00 0.00 94 1016.2
20260906050549 21 81 0.0 4.8 0.00 0.00 0.00 93 1016.2
20260906050051 21 218 0.0 4.8 0.00 0.00 0.00 93 1016.3
20260906045548 21 103 0.0 3.2 0.00 0.00 0.00 93 1016.3
20260906045048 21 52 0.0 3.2 0.00 0.00 0.00 93 1016.4
20260906044548 21 96 0.0 3.2 0.00 0.00 0.00 93 1016.5
20260906044047 21 158 0.0 3.2 0.00 0.00 0.00 92 1016.4
20260906043547 21 129 0.0 6.4 0.00 0.00 0.00 92 1016.5
20260906043047 21 131 0.0 6.4 0.00 0.00 0.00 93 1016.5
20260906042546 21 83 0.0 4.8 0.00 0.00 0.00 92 1016.6
20260906042047 21 29 0.0 0.0 0.00 0.00 0.00 92 1016.7
20260906040047 22 72 0.0 1.6 0.00 0.00 0.00 91 1016.6
20260906035542 22 91 0.0 3.2 0.00 0.00 0.00 91 1016.6
20260906035043 22 121 0.0 3.2 0.00 0.00 0.00 90 1016.6
20260906034549 22 127 0.0 4.8 0.00 0.00 0.00 90 1016.7
20260906034041 22 172 0.0 4.8 0.00 0.00 0.00 89 1016.5
20260906033541 22 104 0.0 4.8 0.00 0.00 0.00 89 1016.6
20260906033041 22 86 0.0 4.8 0.00 0.00 0.00 89 1016.6
20260906032542 22 105 0.0 3.2 0.00 0.00 0.00 89 1016.6
20260906032041 22 359 0.0 4.8 0.00 0.00 0.00 88 1016.7
20260906031604 22 176 0.0 4.8 0.00 0.00 0.00 88 1016.6
20260906031044 22 68 0.0 3.2 0.00 0.00 0.00 87 1016.6
20260906030541 22 67 0.0 3.2 0.00 0.00 0.00 87 1016.6
20260906030041 22 160 0.0 3.2 0.00 0.00 0.00 86 1016.6
20260906025541 22 66 0.0 1.6 0.00 0.00 0.00 86 1016.6
20260906025040 22 67 0.0 3.2 0.00 0.00 0.00 86 1016.6
20260906024555 22 255 0.0 3.2 0.00 0.00 0.00 85 1016.6
20260906024042 23 130 0.0 3.2 0.00 0.00 0.00 85 1016.6
20260906023540 23 121 0.0 3.2 0.00 0.00 0.00 85 1016.6
20260906023044 23 134 0.0 1.6 0.00 0.00 0.00 85 1016.6
20260906022539 23 94 0.0 1.6 0.00 0.00 0.00 84 1016.7
20260906022040 23 94 0.0 1.6 0.00 0.00 0.00 84 1016.7
20260906021539 23 94 0.0 1.6 0.00 0.00 0.00 84 1016.6
20260906021039 23 105 0.0 1.6 0.00 0.00 0.00 84 1016.6
20260906020539 22 94 0.0 1.6 0.00 0.00 0.00 84 1016.5
20260906020039 22 136 0.0 1.6 0.00 0.00 0.00 84 1016.4
20260906015538 22 155 0.0 0.0 0.00 0.00 0.00 84 1016.2
20260906015039 22 156 0.0 1.6 0.00 0.00 0.00 83 1016.2
20260906014539 23 158 0.0 4.8 0.00 0.00 0.00 83 1016.0
20260906014043 23 280 0.0 3.2 0.00 0.00 0.00 82 1015.7
20260906013539 23 242 0.0 0.0 0.00 0.00 0.00 80 1015.6
20260906013038 23 243 0.0 0.0 0.00 0.00 0.00 80 1015.4
20260906012538 23 102 0.0 0.0 0.00 0.00 0.00 79 1015.2
20260906011039 24 100 0.0 3.2 0.00 0.00 0.00 78 1014.6
20260906010535 24 117 0.0 4.8 0.00 0.00 0.00 77 1014.6
20260906010046 25 109 0.0 4.8 0.00 0.00 0.00 77 1014.4
20260906005535 25 84 0.0 1.6 0.00 0.00 0.00 76 1014.3
20260906005034 25 108 0.0 1.6 0.00 0.00 0.00 76 1014.3
20260906004535 25 86 0.0 3.2 0.00 0.00 0.00 75 1014.2
20260906004033 25 115 0.0 3.2 0.00 0.00 0.00 74 1014.2
20260906003533 26 115 0.0 3.2 0.00 0.00 0.00 73 1014.1
20260906003033 26 100 0.0 4.8 0.00 0.00 0.00 72 1014.2
20260906002532 26 122 0.0 4.8 0.00 0.00 0.00 70 1014.1
20260906002033 27 117 0.0 4.8 0.00 0.00 0.00 69 1014.2
20260906001536 27 108 0.0 3.2 0.00 0.00 0.00 68 1014.2
20260906000030 27 72 0.0 4.8 0.00 0.00 0.00 70 1014.2
20260905235529 27 74 0.0 6.4 0.00 0.00 0.00 70 1014.1
20260905235031 27 103 0.0 6.4 0.00 0.00 0.00 70 1014.0
20260905234529 27 90 0.0 6.4 0.00 0.00 0.00 71 1014.0
20260905234029 27 105 1.6 9.7 0.00 0.00 0.00 70 1014.1
20260905233528 27 111 3.2 11.3 0.00 0.00 0.00 70 1014.0
20260905233027 27 103 4.8 11.3 0.00 0.00 0.00 69 1014.0
20260905232528 27 110 3.2 8.0 0.00 0.00 0.00 71 1013.9
20260905232028 27 92 3.2 9.7 0.00 0.00 0.00 70 1014.0
20260905231528 27 105 3.2 9.7 0.00 0.00 0.00 70 1014.1
20260905231028 27 90 6.4 12.9 0.00 0.00 0.00 69 1014.1
20260905230528 27 109 6.4 12.9 0.00 0.00 0.00 69 1014.1
20260905230032 27 110 6.4 12.9 0.00 0.00 0.00 68 1014.1
20260905225530 27 109 6.4 12.9 0.00 0.00 0.00 69 1014.1
20260905225025 27 22 8.0 12.9 0.00 0.00 0.00 68 1014.1
20260905224525 27 103 8.0 14.5 0.00 0.00 0.00 69 1014.1
20260905224024 27 104 9.7 16.1 0.00 0.00 0.00 68 1014.1
20260905223525 27 89 9.7 16.1 0.00 0.00 0.00 69 1013.9
20260905223024 27 86 9.7 16.1 0.00 0.00 0.00 68 1014.0
20260905222523 27 90 9.7 14.5 0.00 0.00 0.00 69 1014.0
20260905222024 27 75 8.0 12.9 0.00 0.00 0.00 69 1013.9
20260905221523 27 121 6.4 12.9 0.00 0.00 0.00 69 1014.0
20260905221022 27 78 6.4 12.9 0.00 0.00 0.00 68 1014.1
20260905220521 27 101 8.0 12.9 0.00 0.00 0.00 67 1014.1
20260905220023 27 139 3.2 11.3 0.00 0.00 0.00 68 1014.1
20260905215519 27 91 6.4 20.9 0.00 0.00 0.00 69 1013.9
20260905215019 27 91 11.3 20.9 0.00 0.00 0.00 68 1013.7
20260905214518 27 124 8.0 17.7 0.00 0.00 0.00 69 1013.7
20260905214118 27 121 9.7 17.7 0.00 0.00 0.00 67 1013.7
20260905213517 27 110 6.4 17.7 0.00 0.00 0.00 69 1013.7
20260905213116 27 82 9.7 17.7 0.00 0.00 0.00 69 1013.5
20260905212515 27 124 11.3 22.5 0.00 0.00 0.00 69 1013.6
20260905212013 27 115 11.3 22.5 0.00 0.00 0.00 70 1013.8
20260905211529 27 77 11.3 19.3 0.00 0.00 0.00 68 1014.0
20260905211013 27 101 9.7 17.7 0.00 0.00 0.00 68 1014.0
20260905210511 27 94 8.0 17.7 0.00 0.00 0.00 70 1014.0
20260905210010 27 111 9.7 17.7 0.00 0.00 0.00 70 1014.0
20260905205509 26 127 11.3 19.3 0.00 0.00 0.00 70 1014.2
20260905205008 26 108 8.0 19.3 0.00 0.00 0.00 73 1014.4
20260905204507 26 105 9.7 19.3 0.00 0.00 0.00 72 1014.5
20260905204005 26 120 11.3 19.3 0.00 0.00 0.00 74 1014.6
20260905203505 26 111 8.0 16.1 0.00 0.00 0.00 75 1014.7
20260905203004 26 77 9.7 14.5 0.00 0.00 0.00 74 1014.8
20260905202503 26 47 9.7 20.9 0.00 0.00 0.00 76 1014.9
20260905202002 26 79 11.3 20.9 0.00 0.00 0.00 76 1015.0
20260905201501 26 82 9.7 17.7 0.00 0.00 0.00 77 1015.1
20260905201100 26 117 9.7 16.1 0.00 0.00 0.00 78 1015.2
20260905200559 25 79 9.7 16.1 0.00 0.00 0.00 79 1015.2
20260905200118 26 124 6.4 14.5 0.00 0.00 0.00 79 1015.4
20260905195556 25 121 6.4 14.5 0.00 0.00 0.00 81 1015.3
20260905194554 25 101 8.0 16.1 0.00 0.00 0.00 81 1015.6
20260905194055 25 106 8.0 14.5 0.00 0.00 0.00 82 1015.7
20260905193551 25 160 6.4 14.5 0.00 0.00 0.00 83 1015.8
20260905193052 24 94 3.2 12.9 0.00 0.00 0.00 85 1015.9
20260905192550 24 77 6.4 12.9 0.00 0.00 0.00 85 1016.0
20260905192049 24 86 6.4 14.5 0.00 0.00 0.00 84 1015.8
20260905191549 24 105 8.0 14.5 0.00 0.00 0.00 85 1015.7
20260905191050 24 65 6.4 17.7 0.00 0.00 0.00 86 1015.7
20260905190647 23 124 8.0 17.7 0.00 0.00 0.00 86 1015.7
20260905190045 23 103 9.7 14.5 0.00 0.00 0.00 87 1015.8
20260905185543 23 77 6.4 16.1 0.00 0.00 0.00 88 1015.9
20260905185043 22 96 4.8 16.1 0.00 0.00 0.00 88 1016.0
20260905184543 22 121 9.7 16.1 0.00 0.00 0.00 87 1016.0
20260905184046 22 99 4.8 12.9 0.00 0.00 0.00 88 1016.2
20260905183542 22 101 6.4 12.9 0.00 0.00 0.00 86 1016.2
20260905183045 22 67 0.0 9.7 0.00 0.00 0.00 89 1016.2
20260905182541 22 120 3.2 6.4 0.00 0.00 0.00 87 1016.4
20260905182039 22 57 0.0 4.8 0.00 0.00 0.00 88 1016.5
20260905181538 22 77 0.0 6.4 0.00 0.00 0.00 88 1016.6
20260905181038 22 77 1.6 6.4 0.00 0.00 0.00 88 1016.8
20260905180538 22 124 0.0 6.4 0.00 0.00 0.00 88 1016.9
20260905180036 22 326 0.0 3.2 0.00 0.00 0.00 88 1017.1
20260905175536 22 243 0.0 6.4 0.00 0.00 0.00 89 1017.0
20260905175038 22 174 0.0 6.4 0.00 0.00 0.00 89 1017.0
20260905174536 22 85 0.0 8.0 0.00 0.00 0.00 88 1017.0
20260905174035 22 115 0.0 9.7 0.00 0.00 0.00 89 1017.1